Location: Notre Dame Regional High School Observatory
(37.3056°N, 89.6097°W)
Time: 04:22:44
(UTC-06:00)

Okean 2 Rocket - Visible Passes

Search period start: 24 February 2017 00:00
Search period end: 06 March 2017 00:00
Orbit: 616 x 643 km, 82.5° (Epoch: 23 February)

Date Brightness Start Highest point End Pass type
(mag) Time Alt. Az. Time Alt. Az. Time Alt. Az.
24 Feb 6.3 03:53:33 10° NE 03:55:10 12° ENE 03:56:46 10° E visible
24 Feb 3.1 05:29:18 10° NNW 05:33:34 52° W 05:37:49 10° S visible
25 Feb 5.4 04:12:29 10° NNE 04:16:03 24° ENE 04:19:37 10° SE visible
25 Feb 4.1 05:50:28 10° NW 05:54:01 24° W 05:57:35 10° SW visible
25 Feb 5.1 18:20:51 10° SW 18:24:52 33° WNW 18:28:53 10° NNW visible
26 Feb 3.9 04:32:32 10° N 04:36:48 49° E 04:41:04 10° SSE visible
26 Feb 6.1 18:42:50 10° WSW 18:45:41 17° WNW 18:48:32 10° NNW visible
27 Feb 2.9 04:53:02 10° N 04:57:26 76° W 05:01:49 10° S visible
28 Feb 5.8 03:36:51 10° NNE 03:39:47 17° ENE 03:42:42 10° ESE visible
28 Feb 3.6 05:13:58 10° NNW 05:17:57 34° W 05:21:55 10° SSW visible
01 Mar 4.6 03:56:34 10° NNE 04:00:36 34° ENE 04:04:37 10° SE visible
01 Mar 4.5 05:35:32 10° NW 05:38:21 17° W 05:41:09 10° SW visible
02 Mar 4.4 04:16:53 10° N 04:24:07 22° SSE 04:25:40 10° SSE visible
02 Mar 6.5 18:28:55 10° W 18:30:18 11° WNW 18:31:42 10° NW visible
03 Mar 5.6 04:48:16 - S 04:48:16 - S 04:37:34 10° NNW visible
